Погода в Слуцке

Погода в Слуцке : погода сейчас, прогноз погоды и архив. Всё, что Вы хотите узнать о погоде в Слуцке!

Хотите узнать прогноз погоды в Слуцке? Тогда Вам сюда: Погода в Слуцке

Поиск расширенной информации на нашем сайте:

Другие новости

Новости СМИ2

Главная страница сайта

Новости сайта

02.10.2013

Напоминаем, что на нашем новом сайте вы можете получить высокодетализированные прогнозы погоды по пунктам России, СНГ и мира (включающие важные для авиации метеовеличины, такие как направление и скорость ветра, видимость, явления погоды, количество и форма облачности, нижняя и верхняя граница облачности), а также ознакомиться с разнообразными материалами по авиационной метеорологии и подборкой полезных ссылок на эту тему.

Сайт Метеоцентр.Азия посвящён разработке технологий оптимизации авиаметеорологического обслуживания, включая проектирование и перспективное создание нескольких автоматизированных авиаметеорологических систем:
- система выпуска высокодетальных прогностических карт явлений погоды для нижнего воздушного пространства по России и ближнему зарубежью;
- система верификации прогнозов TAF (выпускаемых синоптиками официальных АМСГ РФ и ближнего зарубежья) и AUTOTAF (выпускаемых сайтом Метеоцентр.Азия) - выявление ошибок, онлайн-сопоставление с фактической погодой METAR, автоматическое внесение коррективов в прогнозы при резком отклонении фактической погоды от прогноза, подсчёт оправдываемости прогнозов по элементам и в целом;
- система обработки, анализа и отображения авиаметеорологической информации для применения провайдерами метеорологической информации.

Рекомендуем: Морозильные витрины www.vitrinabu.ru.

Погода в Слуцке - сегодня

Время (UTC), дата Ветер
(°,м/с) 
Видим.   Явления Облачность Т
(°С)
Тd
(°С)
f(%) Тe
(°С)
Pmin
(гПа)
dP
(гПа)
Po
(мм)
O2
(г/м3)
Тmin Tmax R s Состояние
почвы
06 29.09.14 250 (З) 11000 м    9/9 1000 м 
[Sc]
+10.7 +9.3 91 +10  1024.4  0.3  754  291  +8.9         
09 29.09.14 260 (З) 14000 м    9/0 средняя 
[Ac und]
+14.2 +9.8 75 +15  1023.8  -0.3  753  287           
12 29.09.14 270 (З) 17000 м    10/1 1000 м средняя, верхняя 
[Sc|Ac trans|Cs]
+16.9 +9.9 63 +18  1022.6  -1.1  752  284           
15 29.09.14 270 (З) 14000 м    10/3 600 м средняя, верхняя 
[Sc|Ac lent|Cc]
+16.3 +10.5 69 +18  1022  -0.6  752  284           
18 29.09.14 250 (З) 12000 м    9/0 средняя 
[Ac und]
+12.9 +10.4 85 +15  1021.7  -0.4  752  287    +17.7       
21 29.09.14 260 (З) 12000 м    ясно 
+12.2 +10.5 89 +14  1020.9  -0.8  751  288           
00 30.09.14 270 (З) 10 км    9/0 средняя 
[Ac und]
+10.9 +9.9 93 +12  1020.5  -0.6  751  289           
03 30.09.14 260 (З) 5000 м  дымка  3/0 верхняя 
[Ci sp]
+8.8 +8.6 99 +9  1020.3  -0.3  750  291           
06 30.09.14 340 (С) 3200 м  дымка  10/10 180 м 
[St]
+9.9 +9.7 99 +10  1021  0.8  751  290  +7.8         
09 30.09.14 320 (СЗ) 17000 м    9/8 600 м средняя 
[Cu med, cong|Ac und]
+13.7 +9.2 74 +14  1021.6  0.8  752  287           
12 30.09.14 320 (СЗ) 20000 м    9/4 600 м средняя 
[Cu hum|Ac lent]
+15.5 +8.2 62 +15  1021.3  -0.2  752  285           
15 30.09.14 320 (СЗ) 18000 м    9/5 600 м средняя 
[Sc|Ac und]
+13.8 +7.6 66 +15  1021.6  0.2  752  287           
18 30.09.14 350 (С) 15000 м    9/0 средняя 
[Ac und]
+10.3 +8.6 89 +10  1023.4  1.5  753  291    +16.3       
21 30.09.14 330 (СЗ) 18000 м    1/0 средняя 
[Ac trans]
+6.1 +4.5 89 +6  1024.8  754  296           
00 01.10.14 350 (С) 15000 м    ясно 
+3.9 +3.2 95 +3  1025.9  0.9  754  299           
03 01.10.14 020 (С) 12000 м    ясно 
+2.8 +2.3 97 +2  1027.2  1.3  755  301           
06 01.10.14 тихо ()   15000 м    5/0 средняя 
[Ac cast]
+4.8 +3.6 92 +5  1028.2  1.1  756  299  +1.6         
09 01.10.14 060 (СВ) 15000 м    5/0 верхняя 
[Ci sp]
+10.7 +3.4 61 +11  1029.5  1.7  757  293           
12 01.10.14 020 (С) 18000 м    5/0 верхняя 
[Ci sp]
+13 +1.7 46 +13  1029.7  0.4  758  291           
15 01.10.14 040 (СВ) 18000 м    3/0 верхняя 
[Ci fib]
+11.6 +4.3 61 +13  1029.9  758  292           
18 01.10.14 070 (В) 15000 м    3/0 верхняя 
[Ci sp]
+6.8 +4.2 83 +7  1031.4  1.2  758  298    +13.3       
21 01.10.14 070 (В) 13000 м    ясно 
+3.3 +2.6 95 +3  1033.2  1.4  760  302           
00 02.10.14 080 (В) 8000 м  дымка  ясно 
+0.4 +0.1 98 1033.9  0.5  760  306           
03 02.10.14 тихо ()   6000 м  дымка  ясно 
-1.4 -1.7 98 -1  1034.5  0.5  760  308           
06 02.10.14 060 (СВ) 10 км    3/0 верхняя 
[Ci fib]
+0.7 -0.4 92 +1  1035.3  761  306  -2.4         
Время (UTC), дата Ветер
(°,м/с) 
Видим.   Явления Облачность Т
(°С)
Тd
(°С)
f(%) Тe
(°С)
Pmin
(гПа)
dP
(гПа)
Po
(мм)
O2
(г/м3)
Тmin Tmax R s Состояние
почвы

Для получения пояснительной информации подведите курсор к названию столбца.

ПОГОДА в Слуцке - архив

Всё, что Вы хотите узнать о погоде в Слуцке - удобно и подробно!

Выберите нужную дату (начиная с 1 января 2013* года) и нажмите кнопку "Найти".
Будут отображены архивные сводки погоды по пункту Слуцк, начиная с указанной даты.


Отображать данные в формате CSV (для использования в таблицах Excel)


Внимание! Наш архив погоды предназначен исключительно для личного некоммерческого использования в познавательных целях. Если Вам необходимы официальные справки о состоянии погоды (для производственных, юридических, коммерческих и т.п. целей), обращайтесь в органы Росгидромета.

*Примечание: данная дата относится к архиву по метеостанциям СССР (Россия, СНГ, Балтия).
Архив по метеостанциям Зарубежной Европы и Азии (кроме Китая) хранится 10 дней, по другим регионам земного шара (Китай, Африка, Америка, Австралия, Океания) - 1 день.

Слуцк - район местоположения метеостанции


Название, широта, долгота, высота метеостанции:
Слуцк 53°ш. 27.6°д. 162 м над ур. моря [Беларусь]

Дополнительная информация

В oтличие oт бoльшинства пoгoдных сайтoв мы публикуем пoдрoбную метеoинфoрмацию в детальнoм прoфессиoнальнoм фoрмате.

Характеристики температуры и влажнoсти вoздуха измеряются на высoте 2 м в тени вдали oт зданий и деревьев.
Скoрoсть ветра измеряется на высoте 10 м (на урoвне рoста челoвека скoрoсть ветра ниже в 1.5-2 раза). Если метеoстанция нахoдится в гoрoде или в лесу, тo скoрoсть ветра занижена на 2-4 м/с пo сравнению с oткрытым местoм. Скoрoсть ветра над акватoриями крупных рек и oзёр, а также на вершинах хoлмoв на 2-5 м/с выше, чем в oбычных услoвиях.
Атмoсфернoе давление в разных тoчках местнoсти мoжет значительнo oтличаться oт давления на метеoстанции, в зависимoсти oт услoвий рельефа (при пoдъёме на 10 м давление пoнижается примернo на 1 мм рт.ст.).